EW0591 Weather Reports


time (UTC)temp
C
wind
direction
speed
KPH
gust
KPH
rain 1hr
cm
rain 24hr
cm
rain mn
cm
humidity
%
barometer
mb
20260507113526 9 168 1.6 1.6 0.00 0.00 0.00 73 1020.7
20260507113024 9 6 4.8 4.8 0.00 0.00 0.00 73 1020.4
20260507112521 10 162 3.2 3.2 0.00 0.00 0.00 72 1020.5
20260507112018 10 349 8.0 9.7 0.00 0.00 0.00 70 1020.4
20260507111515 8 268 3.2 4.8 0.00 0.00 0.00 76 1020.2
20260507111011 8 336 4.8 4.8 0.00 0.00 0.00 76 1019.9
20260507110508 10 25 3.2 3.2 0.00 0.00 0.00 74 1020.0
20260507110005 8 59 4.8 8.0 0.00 0.00 0.00 77 1019.8
20260507105501 8 175 4.8 4.8 0.00 0.00 0.00 76 1019.9
20260507104957 8 227 4.8 4.8 0.00 0.00 0.00 78 1020.1
20260507104455 9 205 1.6 1.6 0.00 0.00 0.00 75 1020.1
20260507103950 7 289 1.6 1.6 0.00 0.00 0.00 78 1020.4
20260507103447 8 60 1.6 3.2 0.00 0.00 0.00 77 1020.4
20260507102943 8 254 0.0 0.0 0.00 0.00 0.00 78 1020.1
20260507102440 7 247 0.0 0.0 0.00 0.00 0.00 79 1020.1
20260507101937 7 283 0.0 1.6 0.00 0.00 0.00 79 1020.1
20260507101432 7 215 3.2 4.8 0.00 0.00 0.00 78 1020.1
20260507100928 8 243 0.0 0.0 0.00 0.00 0.00 77 1020.0
20260507100426 8 67 3.2 3.2 0.00 0.00 0.00 78 1020.0
20260507095924 8 10 0.0 1.6 0.00 0.00 0.00 78 1019.9
20260507095421 9 255 6.4 8.0 0.00 0.00 0.00 75 1020.0
20260507094918 10 176 4.8 4.8 0.00 0.00 0.00 74 1020.1
20260507094414 10 178 0.0 1.6 0.00 0.00 0.00 73 1019.9
20260507093911 10 174 1.6 1.6 0.00 0.00 0.00 72 1020.2
20260507093409 8 220 0.0 0.0 0.00 0.00 0.00 75 1020.2
20260507092908 10 260 8.0 8.0 0.00 0.00 0.00 73 1019.9
20260507092403 10 139 4.8 4.8 0.00 0.00 0.00 73 1020.0
20260507091900 10 228 1.6 3.2 0.00 0.00 0.00 73 1019.8
20260507091356 10 343 1.6 1.6 0.00 0.00 0.00 70 1019.9
20260507090852 10 219 0.0 0.0 0.00 0.00 0.00 71 1019.9
20260507090349 11 222 0.0 0.0 0.00 0.00 0.00 69 1019.8
20260507085846 11 196 0.0 0.0 0.00 0.00 0.00 68 1019.9
20260507085343 11 92 1.6 3.2 0.00 0.00 0.00 67 1019.8
20260507084840 11 235 3.2 3.2 0.00 0.00 0.00 70 1019.8
20260507084336 12 119 3.2 3.2 0.00 0.00 0.00 66 1019.7
20260507083834 11 205 0.0 0.0 0.00 0.00 0.00 67 1019.9
20260507083330 11 146 0.0 0.0 0.00 0.00 0.00 68 1019.7
20260507082826 11 194 0.0 1.6 0.00 0.00 0.00 67 1019.9
20260507082322 12 228 0.0 0.0 0.00 0.00 0.00 65 1019.8
20260507081819 12 179 1.6 1.6 0.00 0.00 0.00 63 1019.9
20260507081315 13 193 0.0 0.0 0.00 0.00 0.00 62 1019.8
20260507080812 13 144 1.6 1.6 0.00 0.00 0.00 60 1019.9
20260507080308 12 132 6.4 8.0 0.00 0.00 0.00 62 1019.8
20260507075803 13 237 0.0 0.0 0.00 0.00 0.00 63 1019.7
20260507075300 13 84 3.2 3.2 0.00 0.00 0.00 61 1019.7
20260507074756 12 212 0.0 0.0 0.00 0.00 0.00 63 1019.7
20260507074255 12 196 0.0 0.0 0.00 0.00 0.00 63 1019.5
20260507073751 13 201 0.0 1.6 0.00 0.00 0.00 61 1019.7
20260507073248 13 194 0.0 0.0 0.00 0.00 0.00 63 1019.7
20260507072746 12 340 4.8 4.8 0.00 0.00 0.00 65 1019.6
20260507072243 12 206 0.0 0.0 0.00 0.00 0.00 64 1019.7
20260507071740 12 240 0.0 0.0 0.00 0.00 0.00 65 1019.5
20260507071236 13 149 1.6 1.6 0.00 0.00 0.00 60 1019.5
20260507070733 13 253 0.0 0.0 0.00 0.00 0.00 60 1019.6
20260507070230 13 218 0.0 0.0 0.00 0.00 0.00 62 1019.4
20260507065727 14 171 3.2 3.2 0.00 0.00 0.00 59 1019.5
20260507065224 15 161 3.2 3.2 0.00 0.00 0.00 56 1019.5
20260507064721 15 282 0.0 0.0 0.00 0.00 0.00 55 1019.5
20260507064220 15 192 0.0 0.0 0.00 0.00 0.00 52 1019.2
20260507063717 15 184 1.6 1.6 0.00 0.00 0.00 53 1019.5
20260507063213 16 198 0.0 0.0 0.00 0.00 0.00 51 1019.5
20260507062710 16 185 0.0 1.6 0.00 0.00 0.00 52 1019.6
20260507062208 16 204 0.0 0.0 0.00 0.00 0.00 52 1019.6
20260507061706 16 90 4.8 4.8 0.00 0.00 0.00 50 1019.6
20260507061203 16 359 0.0 1.6 0.00 0.00 0.00 52 1019.4
20260507060701 16 159 4.8 4.8 0.00 0.00 0.00 50 1019.1
20260507060157 16 224 0.0 0.0 0.00 0.00 0.00 50 1019.2
20260507055653 17 19 0.0 0.0 0.00 0.00 0.00 48 1019.0
20260507055149 17 40 0.0 1.6 0.00 0.00 0.00 45 1019.6
20260507054645 15 301 0.0 1.6 0.00 0.00 0.00 48 1019.7
20260507054142 15 124 1.6 3.2 0.00 0.00 0.00 47 1019.7
20260507053641 16 198 4.8 4.8 0.00 0.00 0.00 54 1019.7
20260507053138 17 293 0.0 0.0 0.00 0.00 0.00 47 1019.6
20260507052637 18 58 0.0 1.6 0.00 0.00 0.00 39 1019.2
20260507052132 15 16 1.6 3.2 0.00 0.00 0.00 53 1019.6
20260507051630 16 144 0.0 0.0 0.00 0.00 0.00 54 1019.5
20260507051127 15 208 0.0 0.0 0.00 0.00 0.00 56 1019.6
20260507050624 16 137 0.0 1.6 0.00 0.00 0.00 55 1019.0
20260507050120 17 184 0.0 0.0 0.00 0.00 0.00 48 1019.4
20260507045617 17 150 1.6 1.6 0.00 0.00 0.00 52 1019.2
20260507045114 19 11 6.4 8.0 0.00 0.00 0.00 44 1019.1
20260507044611 19 220 4.8 4.8 0.00 0.00 0.00 40 1019.1
20260507044108 18 206 8.0 9.7 0.00 0.00 0.00 40 1019.5
20260507043603 18 207 1.6 1.6 0.00 0.00 0.00 45 1019.4
20260507043101 18 234 0.0 0.0 0.00 0.00 0.00 45 1019.4
20260507042556 18 113 1.6 1.6 0.00 0.00 0.00 45 1019.1
20260507042052 18 73 1.6 1.6 0.00 0.00 0.00 45 1019.4
20260507041549 19 97 1.6 1.6 0.00 0.00 0.00 44 1019.2
20260507041046 19 184 4.8 4.8 0.00 0.00 0.00 41 1019.2
20260507040543 20 216 4.8 4.8 0.00 0.00 0.00 43 1019.4
20260507040039 20 258 0.0 0.0 0.00 0.00 0.00 40 1019.2
20260507035535 20 90 8.0 12.9 0.00 0.00 0.00 41 1019.1
20260507035032 20 166 4.8 9.7 0.00 0.00 0.00 39 1019.0
20260507034528 17 216 0.0 0.0 0.00 0.00 0.00 49 1018.8
20260507034026 17 8 4.8 4.8 0.00 0.00 0.00 53 1019.0
20260507033524 17 150 0.0 0.0 0.00 0.00 0.00 51 1018.8
20260507033021 18 38 1.6 1.6 0.00 0.00 0.00 49 1018.8
20260507032518 17 27 1.6 1.6 0.00 0.00 0.00 52 1018.4
20260507032014 18 62 3.2 3.2 0.00 0.00 0.00 50 1018.6
20260507031510 20 48 0.0 0.0 0.00 0.00 0.00 44 1018.6
20260507031008 20 231 3.2 4.8 0.00 0.00 0.00 42 1018.4
20260507030504 18 110 1.6 3.2 0.00 0.00 0.00 44 1018.7
20260507030002 18 141 3.2 3.2 0.00 0.00 0.00 50 1018.4
20260507025459 19 156 4.8 4.8 0.00 0.00 0.00 45 1018.4
20260507024957 17 208 3.2 3.2 0.00 0.00 0.00 51 1018.6
20260507024454 18 197 0.0 1.6 0.00 0.00 0.00 51 1018.1
20260507023950 18 147 0.0 0.0 0.00 0.00 0.00 47 1018.3
20260507023447 18 333 1.6 1.6 0.00 0.00 0.00 48 1018.3
20260507022944 18 172 0.0 0.0 0.00 0.00 0.00 45 1018.7
20260507022441 19 258 0.0 0.0 0.00 0.00 0.00 43 1018.7
20260507021936 18 234 0.0 1.6 0.00 0.00 0.00 45 1018.5
20260507021432 18 203 0.0 0.0 0.00 0.00 0.00 50 1018.6
20260507020930 19 264 0.0 0.0 0.00 0.00 0.00 51 1018.4
20260507020426 20 240 4.8 8.0 0.00 0.00 0.00 43 1018.5
20260507015923 18 74 3.2 4.8 0.00 0.00 0.00 43 1018.3
20260507015422 18 206 0.0 1.6 0.00 0.00 0.00 51 1018.6
20260507014918 19 289 3.2 3.2 0.00 0.00 0.00 49 1018.3
20260507014415 18 301 0.0 0.0 0.00 0.00 0.00 52 1018.4
20260507013911 19 166 0.0 0.0 0.00 0.00 0.00 52 1018.5
20260507013408 20 157 0.0 1.6 0.00 0.00 0.00 54 1018.7
20260507012906 20 308 1.6 1.6 0.00 0.00 0.00 52 1018.6
20260507012402 20 188 1.6 1.6 0.00 0.00 0.00 51 1018.3
20260507011859 20 239 0.0 0.0 0.00 0.00 0.00 49 1018.4
20260507011355 21 206 1.6 1.6 0.00 0.00 0.00 58 1018.5
20260507010849 21 159 0.0 0.0 0.00 0.00 0.00 50 1018.6
20260507010345 21 246 1.6 1.6 0.00 0.00 0.00 49 1018.4
20260507005843 21 214 1.6 1.6 0.00 0.00 0.00 53 1018.5
20260507005339 21 210 0.0 0.0 0.00 0.00 0.00 47 1018.6
20260507004836 21 263 0.0 0.0 0.00 0.00 0.00 47 1018.8
20260507004333 21 343 1.6 1.6 0.00 0.00 0.00 48 1018.5
20260507003830 21 256 0.0 1.6 0.00 0.00 0.00 45 1018.7
20260507003326 21 257 0.0 1.6 0.00 0.00 0.00 42 1018.8
20260507002821 22 257 0.0 0.0 0.00 0.00 0.00 44 1018.5
20260507002317 21 344 4.8 4.8 0.00 0.00 0.00 42 1018.8
20260507001815 21 60 3.2 3.2 0.00 0.00 0.00 43 1018.6
20260507001312 21 84 1.6 1.6 0.00 0.00 0.00 43 1018.7
20260507000808 21 337 0.0 1.6 0.00 0.00 0.00 42 1018.9
20260507000306 21 4 3.2 4.8 0.00 0.00 0.00 43 1018.7
20260506235800 21 8 3.2 3.2 0.00 0.00 0.00 44 1019.2
20260506235256 21 324 3.2 3.2 0.00 0.00 0.00 44 1018.7
20260506234753 21 10 4.8 8.0 0.00 0.00 0.00 43 1018.8
20260506234251 21 40 9.7 12.9 0.00 0.00 0.00 43 1018.8
20260506233748 21 357 6.4 8.0 0.00 0.00 0.00 47 1018.8
20260506233244 21 265 0.0 0.0 0.00 0.00 0.00 49 1018.9
20260506232741 22 240 0.0 0.0 0.00 0.00 0.00 44 1018.6
20260506232236 22 238 0.0 0.0 0.00 0.00 0.00 41 1018.7
20260506231734 21 216 0.0 0.0 0.00 0.00 0.00 41 1018.7
20260506231232 22 238 0.0 1.6 0.00 0.00 0.00 42 1018.9
20260506230728 22 247 0.0 0.0 0.00 0.00 0.00 43 1018.7
20260506230225 21 254 0.0 0.0 0.00 0.00 0.00 44 1018.6
20260506225721 21 259 0.0 0.0 0.00 0.00 0.00 40 1018.7
20260506225219 22 218 0.0 0.0 0.00 0.00 0.00 41 1018.9
20260506224715 22 241 0.0 0.0 0.00 0.00 0.00 43 1018.9
20260506224212 21 234 0.0 0.0 0.00 0.00 0.00 43 1019.0
20260506223708 21 254 0.0 0.0 0.00 0.00 0.00 44 1019.2
20260506223204 20 256 0.0 0.0 0.00 0.00 0.00 47 1019.2
20260506222702 20 253 0.0 1.6 0.00 0.00 0.00 45 1019.5
20260506222157 20 280 0.0 1.6 0.00 0.00 0.00 43 1019.7
20260506221655 20 243 3.2 3.2 0.00 0.00 0.00 45 1019.8
20260506221153 21 249 1.6 1.6 0.00 0.00 0.00 45 1019.6
20260506220649 20 237 0.0 0.0 0.00 0.00 0.00 41 1019.6
20260506220145 21 234 0.0 0.0 0.00 0.00 0.00 41 1019.8
20260506215642 21 220 0.0 0.0 0.00 0.00 0.00 39 1020.0
20260506215136 21 225 0.0 0.0 0.00 0.00 0.00 42 1019.8
20260506214634 20 204 0.0 1.6 0.00 0.00 0.00 42 1020.0
20260506214131 20 189 0.0 0.0 0.00 0.00 0.00 40 1020.4
20260506213630 19 259 1.6 3.2 0.00 0.00 0.00 43 1020.6
20260506213126 20 252 0.0 0.0 0.00 0.00 0.00 43 1020.2
20260506212624 20 281 0.0 0.0 0.00 0.00 0.00 42 1020.4
20260506212118 20 229 1.6 1.6 0.00 0.00 0.00 45 1020.7
20260506211614 19 234 0.0 0.0 0.00 0.00 0.00 41 1020.8
20260506211111 18 244 0.0 0.0 0.00 0.00 0.00 41 1020.8
20260506210608 18 248 0.0 1.6 0.00 0.00 0.00 43 1020.9
20260506210105 18 224 1.6 1.6 0.00 0.00 0.00 45 1020.9
20260506205602 18 204 3.2 3.2 0.00 0.00 0.00 44 1020.9
20260506205056 19 210 1.6 3.2 0.00 0.00 0.00 41 1021.1
20260506204555 18 205 3.2 4.8 0.00 0.00 0.00 43 1020.8
20260506204051 19 240 0.0 0.0 0.00 0.00 0.00 39 1020.9
20260506203550 20 204 3.2 3.2 0.00 0.00 0.00 43 1021.3
20260506203046 19 191 9.7 14.5 0.00 0.00 0.00 41 1021.1
20260506202544 18 190 8.0 9.7 0.00 0.00 0.00 42 1021.0
20260506202040 18 255 1.6 3.2 0.00 0.00 0.00 46 1021.3
20260506201538 18 210 4.8 8.0 0.00 0.00 0.00 43 1021.3
20260506201034 18 244 0.0 0.0 0.00 0.00 0.00 40 1021.3
20260506200530 17 204 8.0 9.7 0.00 0.00 0.00 43 1021.6
20260506200027 18 246 1.6 3.2 0.00 0.00 0.00 43 1021.5
20260506195524 17 200 4.8 4.8 0.00 0.00 0.00 44 1021.8
20260506195020 17 239 1.6 3.2 0.00 0.00 0.00 48 1021.8
20260506194518 17 257 4.8 4.8 0.00 0.00 0.00 42 1022.1
20260506194014 17 253 0.0 0.0 0.00 0.00 0.00 41 1021.9
20260506193512 16 213 3.2 3.2 0.00 0.00 0.00 44 1022.2
20260506193009 16 259 3.2 3.2 0.00 0.00 0.00 43 1022.2
20260506192505 16 279 3.2 3.2 0.00 0.00 0.00 41 1022.6
20260506192001 16 194 1.6 1.6 0.00 0.00 0.00 42 1022.5
20260506191458 16 199 0.0 1.6 0.00 0.00 0.00 42 1022.9
20260506190955 16 106 3.2 3.2 0.00 0.00 0.00 45 1022.8
20260506190452 16 108 1.6 3.2 0.00 0.00 0.00 42 1022.7
20260506185948 15 69 3.2 4.8 0.00 0.00 0.00 42 1022.8
20260506185446 15 246 0.0 0.0 0.00 0.00 0.00 42 1022.9
20260506184942 15 7 3.2 3.2 0.00 0.00 0.00 41 1023.1
20260506184439 15 254 1.6 3.2 0.00 0.00 0.00 43 1023.1
20260506183937 15 290 4.8 8.0 0.00 0.00 0.00 45 1023.6
20260506183432 15 268 1.6 3.2 0.00 0.00 0.00 42 1023.4
20260506182929 14 186 0.0 0.0 0.00 0.00 0.00 41 1023.3
20260506182426 13 167 0.0 0.0 0.00 0.00 0.00 44 1023.4
20260506181924 14 212 3.2 3.2 0.00 0.00 0.00 43 1023.4
20260506181422 14 230 3.2 3.2 0.00 0.00 0.00 43 1023.6
20260506180918 13 214 0.0 1.6 0.00 0.00 0.00 43 1023.7
20260506180414 13 271 0.0 1.6 0.00 0.00 0.00 45 1023.7
20260506175911 12 290 1.6 1.6 0.00 0.00 0.00 43 1023.7
20260506175408 12 330 1.6 1.6 0.00 0.00 0.00 45 1023.8
20260506174905 13 266 4.8 8.0 0.00 0.00 0.00 44 1024.0
20260506174403 13 292 4.8 8.0 0.00 0.00 0.00 44 1024.2
20260506173900 12 248 8.0 9.7 0.00 0.00 0.00 45 1024.0
20260506173356 12 254 4.8 8.0 0.00 0.00 0.00 48 1024.2
20260506172853 13 233 3.2 8.0 0.00 0.00 0.00 48 1024.3
20260506172350 12 246 3.2 4.8 0.00 0.00 0.00 45 1024.2
20260506171847 12 247 0.0 0.0 0.00 0.00 0.00 46 1024.2
20260506171344 12 330 8.0 11.3 0.00 0.00 0.00 45 1024.7
20260506170842 11 260 1.6 1.6 0.00 0.00 0.00 45 1024.8
20260506170337 12 293 4.8 8.0 0.00 0.00 0.00 48 1024.5
20260506165832 11 157 0.0 1.6 0.00 0.00 0.00 48 1024.7
20260506165329 11 97 0.0 1.6 0.00 0.00 0.00 48 1024.7
20260506164825 10 300 3.2 3.2 0.00 0.00 0.00 49 1025.0
20260506164322 10 14 1.6 1.6 0.00 0.00 0.00 50 1024.9
20260506163819 10 281 3.2 3.2 0.00 0.00 0.00 50 1025.2
20260506163314 10 318 1.6 1.6 0.00 0.00 0.00 49 1025.1
20260506162809 10 308 1.6 1.6 0.00 0.00 0.00 52 1025.3
20260506162308 10 251 3.2 3.2 0.00 0.00 0.00 53 1025.3
20260506161805 9 238 0.0 1.6 0.00 0.00 0.00 54 1025.4
20260506161302 9 280 4.8 4.8 0.00 0.00 0.00 52 1025.5
20260506160800 9 235 0.0 1.6 0.00 0.00 0.00 58 1025.7
20260506160256 8 326 3.2 3.2 0.00 0.00 0.00 59 1025.7
20260506155755 8 73 0.0 1.6 0.00 0.00 0.00 57 1025.8
20260506155251 7 30 1.6 3.2 0.00 0.00 0.00 60 1026.1
20260506153404 5 319 1.6 3.2 0.00 0.00 0.00 69 1026.2
20260506152901 5 253 0.0 0.0 0.00 0.00 0.00 68 1026.3
20260506152358 5 315 3.2 3.2 0.00 0.00 0.00 68 1026.4
20260506151857 5 329 1.6 1.6 0.00 0.00 0.00 69 1026.4
20260506151353 5 259 0.0 0.0 0.00 0.00 0.00 70 1026.4
20260506150851 5 343 1.6 1.6 0.00 0.00 0.00 70 1026.2
20260506150347 5 297 0.0 0.0 0.00 0.00 0.00 73 1026.6
20260506145844 5 255 0.0 0.0 0.00 0.00 0.00 73 1026.6
20260506145340 5 263 0.0 0.0 0.00 0.00 0.00 73 1026.6
20260506144838 4 253 0.0 0.0 0.00 0.00 0.00 75 1026.5
20260506144334 4 248 0.0 0.0 0.00 0.00 0.00 75 1026.6
20260506143833 4 257 0.0 0.0 0.00 0.00 0.00 76 1026.6
20260506143329 4 191 0.0 0.0 0.00 0.00 0.00 76 1026.6
20260506142828 4 43 0.0 1.6 0.00 0.00 0.00 76 1026.9
20260506142325 4 19 1.6 1.6 0.00 0.00 0.00 75 1026.8
20260506141823 5 333 3.2 3.2 0.00 0.00 0.00 73 1026.6
20260506141321 3 220 0.0 0.0 0.00 0.00 0.00 76 1026.9
20260506140819 3 256 0.0 0.0 0.00 0.00 0.00 79 1026.9
20260506140315 3 210 0.0 0.0 0.00 0.00 0.00 82 1027.1
20260506135813 2 206 0.0 0.0 0.00 0.00 0.00 83 1027.2
20260506135308 2 205 0.0 0.0 0.00 0.00 0.00 84 1027.0
20260506134805 1 205 0.0 0.0 0.00 0.00 0.00 87 1027.0
20260506134302 1 187 0.0 0.0 0.00 0.00 0.00 90 1027.1
20260506133759 0 198 0.0 0.0 0.00 0.00 0.00 92 1027.0
20260506133256 0 238 0.0 0.0 0.00 0.00 0.00 92 1027.0
20260506132752 0 238 0.0 0.0 0.00 0.00 0.00 93 1027.0
20260506132250 0 239 0.0 0.0 0.00 0.00 0.00 93 1026.9
20260506131748 0 239 0.0 0.0 0.00 0.00 0.00 93 1026.9
20260506131243 -1 239 0.0 0.0 0.00 0.00 0.00 93 1027.0
20260506130740 -1 237 0.0 0.0 0.00 0.00 0.00 93 1026.8
20260506130237 -1 240 0.0 0.0 0.00 0.00 0.00 92 1026.9
20260506125735 -2 261 0.0 0.0 0.00 0.00 0.00 92 1027.0
20260506125233 -1 222 0.0 0.0 0.00 0.00 0.00 92 1026.9
20260506124731 -1 222 0.0 0.0 0.00 0.00 0.00 92 1026.6
20260506124228 -1 217 0.0 0.0 0.00 0.00 0.00 92 1026.5
20260506123726 -2 222 0.0 0.0 0.00 0.00 0.00 92 1026.6
20260506123225 -2 222 0.0 0.0 0.00 0.00 0.00 92 1026.5
20260506122721 -1 222 0.0 0.0 0.00 0.00 0.00 92 1026.8
20260506122218 -2 222 0.0 0.0 0.00 0.00 0.00 92 1026.3
20260506121716 -1 221 0.0 0.0 0.00 0.00 0.00 92 1026.4
20260506121212 -1 212 0.0 0.0 0.00 0.00 0.00 92 1026.3
20260506120710 -1 213 0.0 0.0 0.00 0.00 0.00 92 1026.3
20260506120208 -1 212 0.0 0.0 0.00 0.00 0.00 91 1026.4
20260506115706 -1 213 0.0 0.0 0.00 0.00 0.00 91 1026.6
20260506115203 -1 236 0.0 0.0 0.00 0.00 0.00 91 1026.2
20260506114700 -2 237 0.0 0.0 0.00 0.00 0.00 91 1026.3
20260506114158 -2 238 0.0 0.0 0.00 0.00 0.00 91 1026.5
20260506113657 -2 237 0.0 0.0 0.00 0.00 0.00 90 1026.6